This is the latest recevied weather packets stored in our database for station/object SALIDA. If no packets are shown the sender has not sent any weather packets the latest 10 day(s).
| Time | Temp. | Humidity | Pressure | Rain* | Wind** | Luminosity | Snow |
|---|---|---|---|---|---|---|---|
| 1777815090 | 1.67° C | 68% | 1014.1 hPa | 0 mm | - | - | - |
| 1777814190 | 1.11° C | 71% | 1014 hPa | 0 mm | - | - | - |
| 1777813290 | 0.56° C | 72% | 1014 hPa | 0 mm | - | - | - |
| 1777812390 | 0° C | 73% | 1013.7 hPa | 0 mm | - | - | - |
| 1777811490 | 0° C | 74% | 1013.7 hPa | 0 mm | - | - | - |
| 1777810590 | -0.56° C | 74% | 1013.8 hPa | 0 mm | - | - | - |
| 1777809690 | -0.56° C | 73% | 1013.6 hPa | 0 mm | - | - | - |
| 1777808790 | 0° C | 72% | 1013.7 hPa | 0 mm | - | - | - |
| 1777807890 | 0° C | 71% | 1013.7 hPa | 0 mm | - | - | - |
| 1777806990 | 0° C | 71% | 1013.7 hPa | 0 mm | - | - | - |
| 1777806090 | 0° C | 71% | 1013.9 hPa | 0 mm | - | - | - |
| 1777805190 | 0° C | 70% | 1014.1 hPa | 0 mm | - | - | - |
| 1777804290 | 0.56° C | 72% | 1014 hPa | 0 mm | - | - | - |
| 1777803390 | 0.56° C | 71% | 1014 hPa | 0 mm | - | - | - |
| 1777802490 | 0.56° C | 71% | 1013.9 hPa | 0 mm | - | - | - |
| 1777801590 | 1.11° C | 71% | 1014.1 hPa | 0 mm | - | - | - |
| 1777800690 | 1.11° C | 67% | 1014.3 hPa | 0 mm | - | - | - |
| 1777799790 | 1.11° C | 66% | 1014.1 hPa | 0 mm | - | - | - |
| 1777798890 | 1.11° C | 64% | 1014.2 hPa | 0 mm | - | - | - |
| 1777797990 | 1.67° C | 63% | 1014.1 hPa | 0 mm | - | - | - |
| 1777797090 | 1.67° C | 62% | 1014.1 hPa | 0 mm | - | - | - |
| 1777796190 | 2.22° C | 61% | 1014.2 hPa | 0 mm | - | - | - |
| 1777795291 | 2.22° C | 62% | 1014 hPa | 0 mm | - | - | - |
| 1777794391 | 2.78° C | 61% | 1013.8 hPa | 0 mm | - | - | - |
| 1777793490 | 3.33° C | 60% | 1014.1 hPa | 0 mm | - | - | - |
* Rain latest hour (hover to see other rain measurements)
** Current wind speed in m/s (hover to see current wind gust speed)